Location: Unspecified
(48.8656°N, 0.0000°E)
Time: 04:57:14
(UTC+00:00)

Vanguard 1 Rocket - Pass Details

Date: 23 June 2019
Orbit: 652 x 4224 km, 34.3° (Epoch: 16 August)

Event Time Altitude Azimuth Distance (km) Brightness Sun altitude
Rises 18:44:35 0° 250° (WSW) 7,107 12.7 10.9°
Reaches altitude 10° 18:50:32 10° 244° (WSW) 5,487 12.0 10.0°
Maximum altitude 19:02:50 35° 186° (S) 2,527 9.6 8.1°
Drops below altitude 10° 19:09:51 10° 123° (ESE) 3,112 9.5 7.1°
Sets 19:12:15 0° 114° (ESE) 3,781 9.9 6.8°
